Flag for Portugal Weather past 2 weeks in Vila Nova de Gaia, Portugal

Now
50 °F

Partly sunny.


Feels Like: 48 °F
Forecast: 39 / 52 °F
Wind: 6 mph from East

Location: Porto / Pedras Rubras

Current Time: Dec 19, 2014 at 12:39:16 PM

Latest Report: Dec 19, 2014 at 12:00 PM


Visibility: N/A

Pressure: 30.54 "Hg

Humidity: 76%

Dew point: 43 °F

Location of Vila Nova de GaiaLocation

Historic Weather in Vila Nova de Gaia — Graph

°F

Vila Nova de Gaia temperature yesterday

Maximum temperature yesterday: 55 °F (at 2:00 PM)
Minimum temperature yesterday: 39 °F (at 7:30 AM)
Average temperature yesterday: 46 °F

Past Weeks' High & Low Weather Summary

 TemperatureHumidityPressure
High59 °F (Dec 17, 12:30 PM)100% (Dec 4, 10:00 PM)30.57 "Hg (Dec 4, 10:00 PM)
Low36 °F (Dec 8, 6:30 AM)48% (Dec 6, 2:00 PM)29.71 "Hg (Dec 13, 2:00 AM)
Average49 °F87%30.28 "Hg
* Reported Dec 4 11:00 AM — Dec 19 11:30 AM, Vila Nova de Gaia, Weather by CustomWeather, © 2014

Note: Actual official high and low records may vary slightly from our data, if they occured in-between our weather recording intervals... More about our weather records

Advertising

Vila Nova de Gaia weather history for previous 24 hours

 ConditionsComfort  
Time TempWeatherWind HumidityBarometerVisibility
11:30 AM
Dec 19
50 °FPartly sunny.6 mph76%30.54 "HgN/A
11:00 AM48 °FPartly sunny.5 mph82%30.54 "HgN/A
10:30 AM46 °FPartly sunny.6 mph87%30.54 "HgN/A
10:00 AM45 °FPartly sunny.6 mph87%30.54 "HgN/A
9:30 AM43 °FScattered clouds.5 mph87%30.54 "HgN/A
9:00 AM41 °FPassing clouds.5 mph93%30.51 "Hg5 mi
8:30 AM39 °FPassing clouds.2 mph100%30.51 "Hg5 mi
8:00 AM39 °FPassing clouds.3 mph93%30.48 "Hg5 mi
7:30 AM39 °FPassing clouds.6 mph100%30.48 "Hg5 mi
7:00 AM41 °FPassing clouds.3 mph93%30.48 "Hg5 mi
6:30 AM43 °FPassing clouds.5 mph93%30.48 "Hg5 mi
6:00 AM43 °FPassing clouds.No wind93%30.48 "Hg5 mi
5:30 AM43 °FPassing clouds.3 mph93%30.45 "Hg6 mi
5:00 AM43 °FPassing clouds.5 mph93%30.45 "Hg5 mi
4:30 AM43 °FPassing clouds.5 mph93%30.45 "Hg5 mi
4:00 AM43 °FPassing clouds.6 mph93%30.48 "Hg5 mi
3:30 AM41 °FPassing clouds.7 mph100%30.48 "Hg4 mi
3:00 AM41 °FPassing clouds.7 mph100%30.48 "Hg4 mi
2:30 AM39 °FPassing clouds.3 mph100%30.48 "Hg4 mi
2:00 AM39 °FClear.5 mph100%30.48 "Hg4 mi
1:30 AM39 °FClear.5 mph100%30.48 "Hg4 mi
1:00 AM41 °FClear.5 mph100%30.48 "Hg4 mi
12:30 AM41 °FClear.6 mph100%30.48 "Hg4 mi
12:00 AM43 °FClear.7 mph93%30.48 "Hg4 mi
11:30 PM
Dec 18
43 °FClear.7 mph93%30.48 "Hg4 mi
11:00 PM43 °FClear.7 mph100%30.48 "Hg4 mi
10:30 PM41 °FClear.2 mph100%30.48 "Hg4 mi
10:00 PM43 °FClear.5 mph100%30.48 "Hg4 mi
9:00 PM41 °FClear.2 mph100%30.45 "Hg4 mi
8:30 PM43 °FClear.2 mph100%30.45 "Hg4 mi
8:00 PM45 °FClear.2 mph93%30.45 "Hg4 mi
7:30 PM45 °FFog.3 mph93%30.45 "Hg2 mi
7:00 PM45 °FClear.2 mph93%30.45 "Hg5 mi
6:30 PM46 °FClear.2 mph87%30.45 "Hg10 mi
6:00 PM46 °FClear.1 mph87%30.42 "Hg10 mi
5:30 PM50 °FClear.3 mph82%30.42 "Hg10 mi
5:00 PM52 °FSunny.6 mph77%30.42 "Hg10 mi
4:30 PM54 °FSunny.5 mph77%30.42 "Hg10 mi
4:00 PM55 °FSunny.3 mph72%30.42 "Hg10 mi
3:00 PM55 °FPassing clouds.6 mph67%30.42 "HgN/A
2:30 PM55 °FPassing clouds.7 mph67%30.42 "HgN/A
2:00 PM55 °FPassing clouds.8 mph67%30.42 "HgN/A
1:30 PM54 °FSunny.7 mph72%30.42 "Hg10 mi
1:00 PM54 °FPassing clouds.8 mph72%30.45 "HgN/A
12:30 PM54 °FPassing clouds.9 mph72%30.45 "HgN/A
12:00 PM54 °FPassing clouds.9 mph72%30.45 "HgN/A
Weather by CustomWeather, © 2014

See weather overviewHow to use our weather pages